Weather History for Saturna Island, BC

Change the Weather History Date:

Sunday, February 24, 2013

  Actual Average Record
Temperature  
Mean Temperature 44 °F -  
Max Temperature 46 °F - - ()
Min Temperature 41 °F - - ()
Degree Days  
Heating Degree Days 22    
Moisture  
Dew Point 37 °F    
Average Humidity 75    
Maximum Humidity 83    
Minimum Humidity 64    
Precipitation  
Precipitation 0.00 in - - ()
Sea Level Pressure  
Sea Level Pressure 30.16 in    
Wind  
Wind Speed 20 mph ()    
Max Wind Speed 41 mph    
Max Gust Speed 50 mph    
T = Trace of Precipitation, MM = Missing Value Source: Averaged Metar Reports

Daily Weather History Graph

Daily Weather History Graph

Search for Another Location

Airport:

Trip Planner

Search our weather history database for the weather conditions in past years. The results will help you decide how hot, cold, wet, or windy it might be!

Date:

Astronomy

Feb. 24, 2013 Rise Set
Actual Time 7:02 AM PST 5:48 PM PST
Civil Twilight 6:31 AM PST 6:20 PM PST
Nautical Twilight 5:54 AM PST 6:56 PM PST
Astronomical Twilight 5:18 AM PST 7:33 PM PST
Moon 5:05 PM PST (2/24) 6:04 AM PST (2/24)
Length of Visible Light 11h 49m
Length of Day
10h 45m
Waxing Gibbous, 99% of the Moon is Illuminated
Feb 24
Waxing Gibbous
Feb 25
Full
Mar 4
Last Quarter
Mar 11
New
Mar 19
First Quarter

Hourly Weather History & Observations

Time (PST) Temp. Windchill Dew Point Humidity Pressure Visibility Wind Dir Wind Speed Gust Speed Precip Events Conditions
12:00 AM 42.4 °F 35.3 °F 35.6 °F 77% 30.31 in - SW 13.8 mph - N/A   Unknown
1:00 AM 43.0 °F 35.7 °F 33.8 °F 70% 30.31 in - WSW 15.0 mph - N/A   Unknown
2:00 AM 43.0 °F 35.1 °F 34.9 °F 73% 30.32 in - WSW 17.3 mph - N/A   Unknown
3:00 AM 42.8 °F 35.1 °F 35.6 °F 76% 30.33 in - WSW 16.1 mph - N/A   Unknown
4:00 AM 42 °F - 35 °F 70% 30.32 in - WSW 16.1 mph - -  
4:00 AM 42.1 °F 34.2 °F 35.4 °F 77% 30.32 in - WSW 16.1 mph - N/A   Unknown
5:00 AM 42.3 °F 34.1 °F 36.3 °F 79% 30.30 in - SSW 17.3 mph - N/A   Unknown
6:00 AM 42.3 °F 34.4 °F 36.3 °F 79% 30.29 in - South 16.1 mph - N/A   Unknown
7:00 AM 41.5 °F 32.6 °F 36.5 °F 82% 30.28 in - South 19.6 mph - N/A   Unknown
8:00 AM 41.7 °F 31.9 °F 37.0 °F 83% 30.27 in - South 24.2 mph - N/A   Unknown
9:00 AM 42.3 °F 33.3 °F 37.0 °F 82% 30.27 in - South 20.7 mph - N/A   Unknown
10:00 AM 43 °F - 37 °F 72% 30.25 in - South 25.3 mph - -  
10:00 AM 43.3 °F 33.8 °F 37.0 °F 78% 30.25 in - South 25.3 mph - N/A   Unknown
11:00 AM 44.2 °F 35.0 °F 37.8 °F 78% 30.22 in - South 25.3 mph - N/A   Unknown
12:00 PM 44.2 °F 35.7 °F 38.3 °F 80% 30.22 in - South 21.9 mph - N/A   Unknown
1:00 PM 45.0 °F 36.4 °F 37.9 °F 76% 30.19 in - South 23.0 mph - N/A   Unknown
2:00 PM 45.3 °F 35.4 °F 37.6 °F 74% 30.15 in - South 32.2 mph - N/A   Unknown
3:00 PM 45.3 °F 36.1 °F 37.4 °F 74% 30.13 in - South 27.6 mph - N/A   Unknown
4:00 PM 46 °F - 38 °F 65% 30.10 in - SSW 27.6 mph - -  
4:00 PM 45.7 °F 36.6 °F 38.1 °F 75% 30.10 in - SSW 27.6 mph 38.0 mph N/A   Unknown
5:00 PM 46.0 °F 36.4 °F 37.2 °F 71% 30.06 in - South 32.2 mph 42.6 mph N/A   Unknown
6:00 PM 45.7 °F 36.0 °F 38.1 °F 75% 30.01 in - South 31.1 mph 38.0 mph N/A   Unknown
7:00 PM 45.7 °F 35.6 °F 37.9 °F 74% 29.96 in - South 34.5 mph - N/A   Unknown
8:00 PM 45.9 °F 35.0 °F 37.9 °F 74% 29.93 in - South 41.4 mph 49.5 mph N/A   Unknown
9:00 PM 46.0 °F 35.5 °F 37.2 °F 71% 29.89 in - South 39.1 mph 46.0 mph N/A   Unknown
10:00 PM 46 °F - 38 °F 64% 29.87 in - South 32.2 mph - -  
10:00 PM 45.7 °F 35.9 °F 37.8 °F 74% 29.87 in - South 32.2 mph 38.0 mph N/A   Unknown
11:00 PM 45.1 °F 34.2 °F 37.2 °F 74% 29.83 in - South 39.1 mph 46.0 mph N/A   Unknown